Voltar ao catálogo

STARLINK-32697

AtivoComunicaçõesVLEO
NORAD 62436·PAYLOAD·🇺🇸 United States

Lançado Dec 29, 2024 de Vandenberg Space Force Base

Loading…

Próximas Passagens (próximas 24 horas)

TLE

AtualizadoSource: CelesTrak SupGP

Época: Sep 14, 2026, 21:38 UTC

1 62436C 24251E   26257.90187500 -.00017699  00000+0 -52271-3 0  2577
2 62436  53.1582 175.5725 0001238  92.5456 131.2982 15.34411391    13

Acompanhe STARLINK-32697 em tempo real com AllMySat

Download on the App Store